Change the Weather History Date:

Friday, January 31, 2014

  Actual Average (KLXV) Record (KLXV)
Temperature  
Mean Temperature 22 °F -  
Max Temperature 30 °F 30 °F 54 °F (1992)
Min Temperature 14 °F 3 °F -24 °F (1985)
Degree Days  
Heating Degree Days 43 48  
Month to date heating degree days 1488  
Since 1 July heating degree days 6397  
Cooling Degree Days 0 0  
Month to date cooling degree days 0  
Year to date cooling degree days 0  
Moisture  
Dew Point 22 °F    
Average Humidity 87    
Maximum Humidity 94    
Minimum Humidity 76    
Precipitation  
Precipitation 0.00 in 0.02 in 0.30 in (2000)
Month to date precipitation 0.62  
Year to date precipitation 0.62  
Sea Level Pressure  
Sea Level Pressure 29.62 in    
Wind  
Wind Speed 7 mph (NW)    
Max Wind Speed 15 mph    
Max Gust Speed 22 mph    
Visibility 6 miles    
Events Snow    
T = Trace of Precipitation, MM = Missing Value Source: NWS Daily Summary

Daily Weather History Graph

Daily Weather History Graph

Search for Another Location

Airport or City:

Trip Planner

Search our weather history database for the weather conditions in past years. The results will help you decide how hot, cold, wet, or windy it might be!

Date:

Astronomy

Jan. 31, 2014 Rise Set
Actual Time 7:11 AM MST 5:25 PM MST
Civil Twilight 6:43 AM MST 5:53 PM MST
Nautical Twilight 6:11 AM MST 6:25 PM MST
Astronomical Twilight 5:40 AM MST 6:56 PM MST
Moon 7:24 AM MST (1/31) 6:51 PM MST (1/31)
Length of Visible Light 11h 09m
Length of Day
10h 13m
New Moon, 1% of the Moon is Illuminated
Jan 31
New Moon
Feb 6
First Quarter
Feb 14
Full
Feb 22
Last Quarter
Mar 1
New

Hourly Weather History & Observations

Time (MST) Temp. Windchill Dew Point Humidity Pressure Visibility Wind Dir Wind Speed Gust Speed Precip Events Conditions
12:15 AM 30.6 °F 20.7 °F 28.8 °F 93% 29.56 in 1.5 mi NNW 12.7 mph 20.7 mph N/A Snow Light Snow
12:35 AM 30.2 °F 19.8 °F 27.7 °F 90% 29.56 in 7.0 mi NW 13.8 mph 21.9 mph N/A Snow Light Snow
12:55 AM 30.6 °F 21.8 °F 27.0 °F 86% 29.58 in 7.0 mi NNW 10.4 mph 19.6 mph N/A Snow Light Snow
1:15 AM 30.2 °F 19.3 °F 26.1 °F 85% 29.57 in 10.0 mi NNW 15.0 mph - N/A Snow Light Snow
1:35 AM 30.0 °F 19.1 °F 26.2 °F 86% 29.58 in 7.0 mi NW 15.0 mph 19.6 mph N/A Snow Light Snow
1:55 AM 28.9 °F 18.2 °F 27.0 °F 92% 29.59 in 0.8 mi NNW 13.8 mph - N/A Snow Snow
2:15 AM 29.1 °F 18.4 °F 26.8 °F 91% 29.61 in 1.0 mi NW 13.8 mph 19.6 mph N/A Snow Snow
2:35 AM 29.1 °F 20.6 °F 26.1 °F 88% 29.61 in 4.0 mi NW 9.2 mph - N/A Snow Light Snow
2:55 AM 29.8 °F 23.0 °F 24.6 °F 81% 29.60 in 7.0 mi NNW 6.9 mph - N/A   Overcast
3:15 AM 28.9 °F 19.8 °F 24.4 °F 83% 29.60 in 10.0 mi NW 10.4 mph - N/A   Overcast
3:35 AM 29.3 °F 20.8 °F 24.4 °F 82% 29.61 in 10.0 mi WNW 9.2 mph - N/A   Overcast
3:55 AM 29.8 °F 26.3 °F 23.9 °F 79% 29.62 in 10.0 mi WNW 3.5 mph - N/A   Overcast
4:15 AM 29.3 °F 25.6 °F 23.5 °F 79% 29.62 in 10.0 mi East 3.5 mph - N/A   Overcast
4:35 AM 28.4 °F 21.2 °F 25.3 °F 88% 29.63 in 10.0 mi SE 6.9 mph - N/A   Overcast
4:55 AM 27.9 °F - 25.7 °F 92% 29.64 in 10.0 mi Calm Calm - N/A   Overcast
5:15 AM 28.6 °F - 25.2 °F 87% 29.65 in 1.5 mi Calm Calm - N/A Snow Light Snow
5:35 AM 27.7 °F 22.4 °F 25.7 °F 92% 29.65 in 2.5 mi North 4.6 mph - N/A Snow Light Snow
5:55 AM 27.1 °F 19.7 °F 24.6 °F 90% 29.65 in 3.0 mi NNW 6.9 mph - N/A Snow Light Snow
6:15 AM 27.0 °F 23.0 °F 24.4 °F 90% 29.67 in 3.0 mi NW 3.5 mph - N/A Snow Light Snow
6:35 AM 26.6 °F - 24.4 °F 92% 29.67 in 3.0 mi Calm Calm - N/A Snow Light Snow
6:55 AM 26.4 °F 22.4 °F 24.1 °F 91% 29.66 in 3.0 mi West 3.5 mph - N/A Snow Light Snow
7:15 AM 26.1 °F 20.5 °F 23.9 °F 92% 29.67 in 5.0 mi West 4.6 mph - N/A Snow Light Snow
7:35 AM 26.1 °F 19.4 °F 23.7 °F 91% 29.67 in 2.0 mi WNW 5.8 mph - N/A Snow Light Snow
7:55 AM 26.1 °F - 23.7 °F 91% 29.68 in 1.5 mi Calm Calm - N/A Snow Light Snow
8:15 AM 25.7 °F - 23.9 °F 93% 29.68 in 1.5 mi Calm Calm - N/A Snow Light Snow
8:35 AM 25.9 °F 19.2 °F 23.9 °F 92% 29.68 in 1.0 mi SE 5.8 mph - N/A Snow Light Snow
8:55 AM 25.3 °F - 23.4 °F 92% 29.68 in 1.2 mi Calm Calm - N/A Snow Light Snow
9:15 AM 25.2 °F 20.9 °F 23.0 °F 91% 29.67 in 1.2 mi SE 3.5 mph - N/A Snow Light Snow
9:35 AM 25.3 °F 19.7 °F 23.0 °F 91% 29.67 in 1.2 mi SE 4.6 mph - N/A Snow Light Snow
9:55 AM 25.7 °F 21.5 °F 23.5 °F 92% 29.67 in 1.5 mi ESE 3.5 mph - N/A Snow Light Snow
10:15 AM 25.7 °F 20.1 °F 23.2 °F 90% 29.67 in 1.2 mi SE 4.6 mph - N/A Snow Light Snow
10:35 AM 25.3 °F 21.1 °F 22.6 °F 89% 29.66 in 2.0 mi SE 3.5 mph - N/A Snow Light Snow
10:55 AM 25.3 °F 19.7 °F 22.8 °F 90% 29.66 in 1.5 mi ESE 4.6 mph - N/A Snow Light Snow
11:15 AM 25.5 °F 18.7 °F 23.0 °F 90% 29.64 in 0.8 mi ESE 5.8 mph - N/A Snow Light Snow
11:35 AM 25.7 °F - 23.0 °F 89% 29.63 in 1.0 mi Calm Calm - N/A Snow Light Snow
11:55 AM 26.1 °F - 23.2 °F 89% 29.62 in 1.2 mi Calm Calm - N/A Snow Light Snow
12:15 PM 26.1 °F - 23.2 °F 89% 29.60 in 1.2 mi Calm Calm - N/A Snow Light Snow
12:35 PM 26.2 °F - 23.4 °F 89% 29.58 in 1.5 mi Calm Calm - N/A Snow Light Snow
12:55 PM 27.1 °F - 23.9 °F 88% 29.57 in 1.8 mi Calm Calm - N/A Snow Light Snow
1:15 PM 26.6 °F - 23.9 °F 90% 29.57 in 1.0 mi Calm Calm - N/A Snow Light Snow
1:35 PM 26.6 °F - 24.3 °F 91% 29.56 in 0.5 mi Calm Calm - N/A Snow Snow
1:55 PM 27.5 °F - 24.8 °F 90% 29.56 in 0.5 mi Calm Calm - N/A Snow Snow
2:15 PM 27.1 °F 23.2 °F 24.4 °F 90% 29.55 in 0.8 mi South 3.5 mph - N/A Snow Light Snow
2:55 PM 27.7 °F - 25.3 °F 91% 29.56 in 3.0 mi Calm Calm - N/A Snow Light Snow
3:15 PM 27.3 °F 23.4 °F 24.8 °F 90% 29.56 in 7.0 mi NW 3.5 mph - N/A   Overcast
3:35 PM 27.7 °F 19.6 °F 24.8 °F 89% 29.55 in 7.0 mi NW 8.1 mph - N/A Snow Light Snow
3:55 PM 27.3 °F 17.7 °F 24.3 °F 88% 29.57 in 10.0 mi SSE 10.4 mph - N/A   Overcast
4:15 PM 27.3 °F 23.4 °F 24.6 °F 90% 29.57 in 10.0 mi East 3.5 mph - N/A   Overcast
4:35 PM 27.5 °F - 23.9 °F 86% 29.57 in 10.0 mi Calm Calm - N/A   Mostly Cloudy
4:55 PM 25.7 °F 13.5 °F 23.9 °F 93% 29.57 in 10.0 mi SE 15.0 mph - N/A   Mostly Cloudy
5:15 PM 25.7 °F 19.0 °F 23.4 °F 91% 29.57 in 10.0 mi ESE 5.8 mph - N/A   Mostly Cloudy
5:35 PM 24.4 °F 20.1 °F 23.0 °F 94% 29.57 in 10.0 mi SSE 3.5 mph - N/A   Mostly Cloudy
5:55 PM 27.0 °F - 23.7 °F 88% 29.58 in 10.0 mi Calm Calm - N/A   Overcast
6:15 PM 24.8 °F - 22.6 °F 91% 29.60 in 10.0 mi Calm Calm - N/A   Overcast
6:35 PM 25.3 °F 17.6 °F 23.4 °F 92% 29.60 in 5.0 mi WNW 6.9 mph - N/A Snow Light Snow
6:55 PM 26.1 °F - 21.2 °F 82% 29.60 in 10.0 mi Calm Calm - N/A   Overcast
7:15 PM 26.6 °F 18.2 °F 20.8 °F 79% 29.62 in 10.0 mi NW 8.1 mph - N/A   Overcast
7:35 PM 26.1 °F 19.4 °F 21.2 °F 82% 29.62 in 10.0 mi NW 5.8 mph - N/A   Overcast
7:55 PM 25.7 °F 18.0 °F 20.8 °F 82% 29.62 in 10.0 mi North 6.9 mph - N/A   Mostly Cloudy
8:15 PM 25.2 °F 20.9 °F 19.6 °F 79% 29.63 in 10.0 mi NNW 3.5 mph - N/A   Mostly Cloudy
8:35 PM 25.3 °F - 18.9 °F 76% 29.63 in 10.0 mi Calm Calm - N/A   Scattered Clouds
8:55 PM 21.7 °F - 16.2 °F 79% 29.63 in 10.0 mi Calm Calm - N/A   Mostly Cloudy
9:15 PM 22.5 °F 17.8 °F 16.3 °F 77% 29.64 in 10.0 mi WSW 3.5 mph - N/A   Scattered Clouds
9:35 PM 22.1 °F - 15.8 °F 77% 29.64 in 10.0 mi Calm Calm - N/A   Scattered Clouds
9:55 PM 17.2 °F - 12.7 °F 83% 29.64 in 10.0 mi Calm Calm - N/A   Scattered Clouds
10:15 PM 15.4 °F 9.8 °F 11.5 °F 84% 29.64 in 10.0 mi WSW 3.5 mph - N/A   Clear
10:35 PM 18.0 °F 12.7 °F 13.1 °F 81% 29.65 in 10.0 mi West 3.5 mph - N/A   Clear
10:55 PM 14.4 °F - 10.4 °F 84% 29.65 in 10.0 mi Calm Calm - N/A   Scattered Clouds
11:15 PM 16.5 °F 6.9 °F 11.8 °F 82% 29.65 in 10.0 mi West 6.9 mph - N/A   Scattered Clouds
11:35 PM 14.7 °F - 11.5 °F 87% 29.65 in 10.0 mi Calm Calm - N/A   Mostly Cloudy
11:55 PM 14.4 °F - 10.9 °F 86% 29.65 in 10.0 mi Calm Calm - N/A   Scattered Clouds